Weather History for KMCK - November, 2012

Change the Weather History Date:

Tuesday, November 13, 2012

  Actual Average Record
Temperature  
Mean Temperature 33 °F 39 °F  
Max Temperature 52 °F 54 °F 82 °F (1999)
Min Temperature 13 °F 25 °F -6 °F (1986)
Degree Days  
Heating Degree Days 32    
Moisture  
Dew Point 9 °F    
Average Humidity 48    
Maximum Humidity 74    
Minimum Humidity 17    
Precipitation  
Precipitation 0.00 in 0.03 in 0.80 in (1972)
Month to date precipitation 0.04 0.48  
Year to date precipitation 8.13 21.42  
Sea Level Pressure  
Sea Level Pressure 30.32 in    
Wind  
Wind Speed 2 mph (SW)    
Max Wind Speed 9 mph    
Max Gust Speed -    
Visibility 10 miles    
Events      
T = Trace of Precipitation, MM = Missing Value Source: NWS Daily Summary

Daily Weather History Graph

Daily Weather History Graph

Search for Another Location

Airport or City:

Trip Planner

Search our weather history database for the weather conditions in past years. The results will help you decide how hot, cold, wet, or windy it might be!

Date:

Astronomy

Nov. 13, 2012 Rise Set
Actual Time 7:26 AM CST 5:26 PM CST
Civil Twilight 6:57 AM CST 5:55 PM CST
Nautical Twilight 6:24 AM CST 6:28 PM CST
Astronomical Twilight 5:52 AM CST 7:00 PM CST
Moon 7:06 AM CST (11/13) 5:21 PM CST (11/13)
Length of Visible Light 10h 58m
Length of Day
10h 00m
Waning Crescent, 0% of the Moon is Illuminated
Nov 13
Waning Crescent
Nov 13
New
Nov 20
First Quarter
Nov 28
Full
Dec 6
Last Quarter

Hourly Weather History & Observations

Time (CST) Temp. Windchill Dew Point Humidity Pressure Visibility Wind Dir Wind Speed Gust Speed Precip Events Conditions
12:53 AM 19.9 °F - 8.1 °F 60% 30.38 in 10.0 mi Calm Calm - N/A   Clear
1:53 AM 19.0 °F - 8.1 °F 62% 30.37 in 10.0 mi Calm Calm - N/A   Clear
2:53 AM 17.1 °F - 8.1 °F 68% 30.36 in 10.0 mi Calm Calm - N/A   Clear
3:53 AM 18.0 °F - 9.0 °F 68% 30.34 in 10.0 mi Calm Calm - N/A   Clear
4:53 AM 18.0 °F - 9.0 °F 68% 30.32 in - Calm Calm - N/A   Unknown
5:53 AM 15.1 °F 7.7 °F 7.0 °F 70% 30.35 in 10.0 mi South 4.6 mph - N/A   Clear
6:53 AM 17.1 °F - 9.0 °F 71% 30.33 in 10.0 mi Calm Calm - N/A   Clear
7:53 AM 16.0 °F 7.4 °F 9.0 °F 74% 30.35 in 10.0 mi West 5.8 mph - N/A   Clear
8:53 AM 19.0 °F - 10.9 °F 71% 30.37 in 9.0 mi Calm Calm - N/A   Clear
9:53 AM 27.0 °F - 12.9 °F 56% 30.36 in 10.0 mi Calm Calm - N/A   Clear
10:53 AM 34.0 °F 29.8 °F 12.0 °F 40% 30.35 in 10.0 mi South 4.6 mph - N/A   Clear
11:53 AM 39.0 °F - 10.9 °F 32% 30.31 in 10.0 mi Calm Calm - N/A   Clear
12:53 PM 42.1 °F 37.7 °F 10.0 °F 27% 30.28 in 10.0 mi ESE 6.9 mph - N/A   Clear
1:53 PM 45.0 °F - 10.9 °F 25% 30.26 in 10.0 mi Calm Calm - N/A   Clear
2:53 PM 48.9 °F - 9.0 °F 20% 30.25 in 10.0 mi North 5.8 mph - N/A   Clear
3:53 PM 51.1 °F - 7.0 °F 17% 30.25 in 10.0 mi Calm Calm - N/A   Partly Cloudy
4:53 PM 50.0 °F - 8.1 °F 18% 30.26 in 10.0 mi Calm Calm - N/A   Clear
5:53 PM 48.0 °F - 7.0 °F 19% 30.26 in 10.0 mi SSE 5.8 mph - N/A   Clear
6:53 PM 37.0 °F - 8.1 °F 30% 30.30 in 10.0 mi Calm Calm - N/A   Clear
7:53 PM 34.0 °F - 9.0 °F 35% 30.33 in 10.0 mi Calm Calm - N/A   Clear
8:53 PM 28.9 °F 21.1 °F 10.0 °F 45% 30.35 in 10.0 mi WSW 8.1 mph - N/A   Clear
9:53 PM 24.1 °F 18.2 °F 10.0 °F 55% 30.36 in 10.0 mi WSW 4.6 mph - N/A   Clear
10:53 PM 26.1 °F 16.8 °F 10.0 °F 51% 30.36 in 10.0 mi West 9.2 mph - N/A   Clear
11:53 PM 24.1 °F 16.0 °F 12.0 °F 60% 30.34 in 10.0 mi West 6.9 mph - N/A   Clear